Vorticity
23 37 2 -26 -13 17 31 10 16 -38 44 35 26 22 36 -19 9 52 34 -21 -7 32 -4 3 5 4 9
25 29 17 -10 -11 11 14 18 12 -6 -19 25 12 29 24 5 24 -6 41 6 -0 11 -1 12 -16 14 32
30 35 9 -2 -3 20 23 5 36 31 -11 66 3 27 44 9 -18 -33 37 21 23 -1 5 5 11 20 8
43 35 10 12 2 2 9 -14 29 30 -1 22 11 30 33 44 43 30 36 33 18 9 12 5 3 1 -1
19 20 -3 7 -2 5 10 14 37 7 38 34 -6 53 43 10 -6 40 12 22 24 15 5 3 4 14 3
35 14 20 8 5 28 -16 26 3 -7 -5 33 22 14 21 60 17 29 -10 -3 22 19 16 3 7 12 5
30 5 17 2 3 9 -44 -4 10 11 6 31 -3 16 25 34 34 43 7 11 -5 -1 14 6 3 21 16
30 22 6 18 0 2 25 14 14 22 7 4 10 5 1 54 25 35 37 12 25 11 20 21 20 23 21
32 29 -2 17 14 7 18 -43 -26 53 46 19 -13 11 25 -17 -20 25 20 25 18 6 11 17 18 8 10
25 25 11 2 15 16 19 2 -11 -14 1 -10 13 -4 -1 19 8 12 5 5 4 27 4 7 5 -11 15
12 39 14 2 10 15 24 0 2 -4 17 7 23 -17 -3 -1 13 6 27 7 33 5 25 32 12 16 -1
11 21 21 14 1 17 11 7 10 19 -13 -7 -8 25 -24 23 -0 6 -8 -13 6 15 19 -11 21 -1 21
2 14 36 13 5 19 10 4 11 10 18 12 13 1 2 -6 3 8 19 5 -11 -20 -0 7 2 23 1
3 12 16 23 14 -1 25 -5 7 11 17 10 15 7 4 8 14 6 9 20 12 20 16 24 11 4 15
4 7 12 28 16 9 3 18 9 13 22 19 21 14 14 8 5 5 10 14 16 19 12 12 8 8 8
7 7 14 23 18 15 5 7 7 13 12 22 6 16 23 18 8 10 13 12 9 7 6 9 9 4 3
9 8 16 16 22 11 11 3 22 -0 19 2 -6 7 16 23 22 19 10 7 11 8 10 6 13 11 13
Height
5367 5373 5381 5389 5397 5408 5416 5426 5433 5443 5461 5473 5481 5494 5506 5523 5538 5549 5561 5573 5583 5596 5606 5617 5626 5635 5643
5361 5369 5376 5385 5395 5406 5413 5422 5432 5439 5448 5457 5474 5484 5498 5515 5529 5540 5548 5560 5576 5586 5598 5611 5618 5627 5635
5357 5364 5374 5384 5392 5403 5413 5424 5431 5438 5443 5453 5467 5475 5489 5504 5518 5534 5538 5550 5559 5577 5591 5604 5612 5620 5627
5355 5363 5374 5383 5392 5400 5412 5422 5431 5437 5444 5451 5460 5469 5482 5496 5512 5524 5534 5543 5556 5571 5585 5595 5605 5612 5620
5355 5363 5374 5383 5391 5400 5411 5421 5426 5436 5443 5449 5456 5464 5476 5493 5504 5516 5529 5539 5551 5564 5576 5587 5596 5605 5613
5354 5363 5373 5382 5389 5400 5407 5417 5424 5432 5441 5447 5454 5462 5471 5485 5502 5512 5523 5535 5546 5557 5570 5580 5589 5598 5605
5353 5361 5371 5380 5387 5395 5406 5417 5423 5432 5438 5446 5454 5460 5471 5482 5497 5508 5520 5532 5541 5553 5564 5574 5582 5590 5597
5354 5361 5369 5378 5388 5395 5406 5416 5421 5430 5437 5444 5451 5458 5471 5481 5492 5502 5516 5527 5539 5547 5558 5567 5576 5585 5592
5353 5360 5368 5377 5386 5393 5404 5410 5421 5429 5434 5441 5449 5460 5470 5481 5490 5503 5511 5522 5534 5544 5554 5562 5571 5582 5589
5353 5359 5366 5375 5384 5392 5401 5409 5419 5427 5433 5440 5448 5459 5469 5478 5489 5501 5510 5519 5531 5541 5552 5561 5570 5578 5586
5353 5357 5364 5373 5382 5392 5400 5407 5417 5426 5433 5441 5447 5458 5469 5478 5486 5499 5511 5520 5527 5537 5548 5558 5569 5576 5582
5351 5355 5361 5369 5378 5389 5398 5406 5414 5423 5433 5440 5449 5454 5466 5477 5485 5496 5507 5517 5527 5536 5545 5553 5561 5569 5578
5349 5354 5359 5368 5378 5387 5396 5404 5412 5422 5432 5439 5447 5457 5464 5477 5486 5493 5502 5511 5522 5533 5540 5548 5557 5565 5573
5346 5351 5357 5364 5374 5384 5394 5402 5411 5419 5429 5437 5444 5454 5464 5471 5481 5491 5499 5509 5517 5527 5534 5542 5551 5559 5567
5343 5348 5354 5361 5370 5380 5390 5399 5409 5418 5425 5433 5441 5452 5461 5470 5478 5487 5497 5504 5512 5522 5530 5538 5545 5554 5561
5338 5345 5351 5357 5366 5376 5387 5397 5407 5415 5424 5429 5439 5449 5459 5468 5476 5485 5493 5502 5510 5518 5526 5533 5541 5548 5555
5333 5341 5347 5355 5362 5372 5383 5394 5404 5413 5422 5428 5438 5448 5457 5465 5472 5480 5490 5498 5506 5513 5520 5528 5535 5543 5548